Time,TemperatureF,DewpointF,PressureIn,WindDirection,WindDirectionDegrees,WindSpeedMPH,WindSpeedGustMPH,Humidity,HourlyPrecipIn,Conditions,Clouds,dailyrainin,SoftwareType,DateUTC
2013-03-05 00:00:00,47.1,44.0,30.01,SSW,203,1.0,2.0,89,0.00,,,0.00,Wunderground v.1.15,2013-03-05 05:00:00,
2013-03-05 00:02:00,47.0,43.9,30.01,SSW,202,2.0,3.0,89,0.00,,,0.00,Wunderground v.1.15,2013-03-05 05:02:00,
2013-03-05 00:08:00,47.0,44.2,30.01,SSW,199,2.0,3.0,90,0.00,,,0.00,Wunderground v.1.15,2013-03-05 05:08:00,
2013-03-05 00:14:00,47.3,44.5,30.01,SW,219,1.0,3.0,90,0.00,,,0.00,Wunderground v.1.15,2013-03-05 05:14:00,
2013-03-05 00:20:00,47.7,44.9,30.01,South,169,2.0,2.0,90,0.00,,,0.00,Wunderground v.1.15,2013-03-05 05:20:00,
2013-03-05 00:26:00,47.9,45.1,30.01,South,181,1.0,2.0,90,0.00,,,0.00,Wunderground v.1.15,2013-03-05 05:26:00,
2013-03-05 00:32:00,47.7,44.9,30.00,South,169,1.0,2.0,90,0.00,,,0.00,Wunderground v.1.15,2013-03-05 05:32:00,
2013-03-05 00:34:00,47.7,45.2,30.00,SSE,168,1.0,2.0,91,0.00,,,0.00,Wunderground v.1.15,2013-03-05 05:34:00,
2013-03-05 00:40:00,47.9,45.7,30.00,SSW,210,2.0,2.0,92,0.00,,,0.00,Wunderground v.1.15,2013-03-05 05:40:00,
2013-03-05 00:46:00,48.2,46.0,30.00,South,179,1.0,2.0,92,0.00,,,0.00,Wunderground v.1.15,2013-03-05 05:46:00,
2013-03-05 00:52:00,48.2,46.0,30.00,South,175,1.0,3.0,92,0.00,,,0.00,Wunderground v.1.15,2013-03-05 05:52:00,
2013-03-05 00:58:00,48.3,46.4,30.00,South,185,1.0,3.0,93,0.00,,,0.00,Wunderground v.1.15,2013-03-05 05:58:00,
2013-03-05 01:04:00,48.5,46.6,30.00,SSE,168,2.0,3.0,93,0.00,,,0.00,Wunderground v.1.15,2013-03-05 06:04:00,
2013-03-05 01:10:00,48.5,46.9,30.00,SSE,168,2.0,2.0,94,0.00,,,0.00,Wunderground v.1.15,2013-03-05 06:10:00,
2013-03-05 01:16:00,48.5,46.9,29.99,SSE,152,2.0,2.0,94,0.00,,,0.00,Wunderground v.1.15,2013-03-05 06:16:00,
2013-03-05 01:22:00,48.8,47.4,29.99,South,172,1.0,2.0,95,0.00,,,0.00,Wunderground v.1.15,2013-03-05 06:22:00,
2013-03-05 01:28:00,49.4,47.7,29.99,South,172,0.0,2.0,94,0.00,,,0.00,Wunderground v.1.15,2013-03-05 06:28:00,
2013-03-05 01:34:00,49.8,47.6,30.00,South,176,0.0,1.0,92,0.00,,,0.00,Wunderground v.1.15,2013-03-05 06:34:00,
2013-03-05 01:40:00,50.1,47.6,30.00,South,188,0.0,0.0,91,0.00,,,0.00,Wunderground v.1.15,2013-03-05 06:40:00,
2013-03-05 01:46:00,50.2,47.4,30.01,SW,224,0.0,0.0,90,0.00,,,0.00,Wunderground v.1.15,2013-03-05 06:46:00,
2013-03-05 01:52:00,50.1,47.3,30.01,WSW,250,0.0,2.0,90,0.00,,,0.00,Wunderground v.1.15,2013-03-05 06:52:00,
2013-03-05 01:58:00,49.4,46.9,30.01,West,265,2.0,3.0,91,0.00,,,0.00,Wunderground v.1.15,2013-03-05 06:58:00,
2013-03-05 02:04:00,49.2,47.0,30.02,West,267,2.0,2.0,92,0.00,,,0.00,Wunderground v.1.15,2013-03-05 07:04:00,
2013-03-05 02:10:00,49.5,47.3,30.02,West,277,1.0,1.0,92,0.00,,,0.00,Wunderground v.1.15,2013-03-05 07:10:00,
2013-03-05 02:16:00,49.6,47.4,30.02,West,275,0.0,1.0,92,0.00,,,0.00,Wunderground v.1.15,2013-03-05 07:16:00,
2013-03-05 02:22:00,49.8,47.3,30.02,West,274,1.0,1.0,91,0.00,,,0.00,Wunderground v.1.15,2013-03-05 07:22:00,
2013-03-05 02:28:00,49.8,47.3,30.02,WSW,257,1.0,3.0,91,0.00,,,0.00,Wunderground v.1.15,2013-03-05 07:28:00,
2013-03-05 02:34:00,49.8,47.3,30.01,WSW,257,1.0,2.0,91,0.00,,,0.00,Wunderground v.1.15,2013-03-05 07:34:00,
2013-03-05 02:40:00,49.9,47.4,30.01,WSW,239,1.0,3.0,91,0.00,,,0.00,Wunderground v.1.15,2013-03-05 07:40:00,
2013-03-05 02:46:00,49.9,47.4,30.01,WSW,257,1.0,3.0,91,0.00,,,0.00,Wunderground v.1.15,2013-03-05 07:46:00,
2013-03-05 02:52:00,49.6,47.1,30.01,WSW,247,3.0,6.0,91,0.00,,,0.00,Wunderground v.1.15,2013-03-05 07:52:00,
2013-03-05 02:58:00,49.8,47.6,30.01,SW,234,4.0,6.0,92,0.00,,,0.00,Wunderground v.1.15,2013-03-05 07:58:00,
2013-03-05 03:04:00,49.9,47.4,30.01,WSW,241,4.0,5.0,91,0.00,,,0.00,Wunderground v.1.15,2013-03-05 08:04:00,
2013-03-05 03:10:00,49.9,47.4,30.01,SW,232,3.0,3.0,91,0.00,,,0.00,Wunderground v.1.15,2013-03-05 08:10:00,
2013-03-05 03:16:00,49.8,47.6,30.00,SW,220,2.0,3.0,92,0.00,,,0.00,Wunderground v.1.15,2013-03-05 08:16:00,
2013-03-05 03:22:00,49.8,47.6,30.00,SW,217,1.0,3.0,92,0.00,,,0.00,Wunderground v.1.15,2013-03-05 08:22:00,
2013-03-05 03:28:00,49.6,47.7,30.00,SSW,202,2.0,3.0,93,0.00,,,0.00,Wunderground v.1.15,2013-03-05 08:28:00,
2013-03-05 03:34:00,49.5,47.6,30.00,South,181,1.0,4.0,93,0.00,,,0.00,Wunderground v.1.15,2013-03-05 08:34:00,
2013-03-05 03:40:00,49.1,47.7,30.00,South,179,2.0,2.0,95,0.00,,,0.00,Wunderground v.1.15,2013-03-05 08:40:00,
2013-03-05 03:46:00,49.1,47.7,30.00,South,182,2.0,2.0,95,0.00,,,0.00,Wunderground v.1.15,2013-03-05 08:46:00,
2013-03-05 03:52:00,49.4,48.3,30.00,SSW,192,1.0,1.0,96,0.00,,,0.00,Wunderground v.1.15,2013-03-05 08:52:00,
2013-03-05 03:58:00,49.9,48.8,30.00,WSW,240,2.0,3.0,96,0.00,,,0.00,Wunderground v.1.15,2013-03-05 08:58:00,
2013-03-05 04:04:00,50.2,48.8,30.01,WSW,240,3.0,3.0,95,0.00,,,0.00,Wunderground v.1.15,2013-03-05 09:04:00,
2013-03-05 04:10:00,50.5,49.1,30.01,WSW,241,3.0,3.0,95,0.00,,,0.00,Wunderground v.1.15,2013-03-05 09:10:00,
2013-03-05 04:16:00,50.5,49.1,30.00,SSW,206,1.0,3.0,95,0.00,,,0.00,Wunderground v.1.15,2013-03-05 09:16:00,
2013-03-05 04:22:00,50.7,49.3,30.00,SSW,198,0.0,1.0,95,0.00,,,0.00,Wunderground v.1.15,2013-03-05 09:22:00,
2013-03-05 04:28:00,50.7,49.3,30.00,SW,223,1.0,3.0,95,0.00,,,0.00,Wunderground v.1.15,2013-03-05 09:28:00,
2013-03-05 04:34:00,50.8,49.4,30.01,SW,236,2.0,3.0,95,0.00,,,0.00,Wunderground v.1.15,2013-03-05 09:34:00,
2013-03-05 04:40:00,50.8,49.7,30.01,SW,227,2.0,2.0,96,0.00,,,0.00,Wunderground v.1.15,2013-03-05 09:40:00,
2013-03-05 04:46:00,50.8,49.7,30.02,WSW,239,0.0,2.0,96,0.00,,,0.00,Wunderground v.1.15,2013-03-05 09:46:00,
2013-03-05 04:52:00,51.0,49.9,30.02,WSW,244,0.0,1.0,96,0.00,,,0.00,Wunderground v.1.15,2013-03-05 09:52:00,
2013-03-05 04:58:00,51.0,49.9,30.02,SW,233,1.0,1.0,96,0.00,,,0.00,Wunderground v.1.15,2013-03-05 09:58:00,
2013-03-05 05:04:00,50.8,50.0,30.02,SW,234,1.0,1.0,97,0.00,,,0.00,Wunderground v.1.15,2013-03-05 10:04:00,
2013-03-05 05:10:00,51.0,50.2,30.02,WSW,237,2.0,2.0,97,0.00,,,0.00,Wunderground v.1.15,2013-03-05 10:10:00,
2013-03-05 05:16:00,51.0,50.2,30.02,SW,229,3.0,4.0,97,0.00,,,0.00,Wunderground v.1.15,2013-03-05 10:16:00,
2013-03-05 05:22:00,51.0,50.2,30.02,WSW,247,3.0,3.0,97,0.00,,,0.00,Wunderground v.1.15,2013-03-05 10:22:00,
2013-03-05 05:28:00,51.0,50.5,30.02,SW,236,3.0,3.0,98,0.00,,,0.00,Wunderground v.1.15,2013-03-05 10:28:00,
2013-03-05 05:34:00,51.1,50.6,30.03,WSW,243,4.0,6.0,98,0.00,,,0.00,Wunderground v.1.15,2013-03-05 10:34:00,
2013-03-05 05:40:00,51.1,50.3,30.03,SW,226,4.0,4.0,97,0.00,,,0.00,Wunderground v.1.15,2013-03-05 10:40:00,
2013-03-05 05:46:00,51.1,50.3,30.02,WSW,243,3.0,4.0,97,0.00,,,0.00,Wunderground v.1.15,2013-03-05 10:46:00,
2013-03-05 05:52:00,51.1,50.3,30.02,WSW,237,3.0,5.0,97,0.00,,,0.00,Wunderground v.1.15,2013-03-05 10:52:00,
2013-03-05 05:58:00,51.1,50.3,30.02,WSW,250,4.0,5.0,97,0.00,,,0.00,Wunderground v.1.15,2013-03-05 10:58:00,
2013-03-05 06:04:00,51.3,50.8,30.03,WSW,239,4.0,6.0,98,0.00,,,0.00,Wunderground v.1.15,2013-03-05 11:04:00,
2013-03-05 06:10:00,51.1,50.3,30.03,WSW,240,4.0,5.0,97,0.00,,,0.00,Wunderground v.1.15,2013-03-05 11:10:00,
2013-03-05 06:16:00,51.1,50.6,30.03,SW,217,4.0,5.0,98,0.00,,,0.00,Wunderground v.1.15,2013-03-05 11:16:00,
2013-03-05 06:22:00,51.1,50.6,30.03,SW,236,5.0,7.0,98,0.00,,,0.00,Wunderground v.1.15,2013-03-05 11:22:00,
2013-03-05 06:28:00,51.1,50.6,30.03,SSW,199,5.0,7.0,98,0.00,,,0.00,Wunderground v.1.15,2013-03-05 11:28:00,
2013-03-05 06:34:00,51.1,50.6,30.02,SW,226,3.0,6.0,98,0.00,,,0.00,Wunderground v.1.15,2013-03-05 11:34:00,
2013-03-05 06:40:00,51.0,50.5,30.02,SW,224,2.0,2.0,98,0.00,,,0.00,Wunderground v.1.15,2013-03-05 11:40:00,
2013-03-05 06:46:00,51.0,50.5,30.02,SW,232,2.0,4.0,98,0.00,,,0.00,Wunderground v.1.15,2013-03-05 11:46:00,
2013-03-05 06:52:00,51.0,50.5,30.02,SSW,206,3.0,3.0,98,0.00,,,0.00,Wunderground v.1.15,2013-03-05 11:52:00,
2013-03-05 06:58:00,51.0,50.7,30.02,SW,233,2.0,3.0,99,0.00,,,0.00,Wunderground v.1.15,2013-03-05 11:58:00,
2013-03-05 07:04:00,51.0,50.7,30.02,SW,233,3.0,4.0,99,0.00,,,0.00,Wunderground v.1.15,2013-03-05 12:04:00,
2013-03-05 07:10:00,51.1,50.8,30.02,SSW,208,4.0,6.0,99,0.00,,,0.00,Wunderground v.1.15,2013-03-05 12:10:00,
2013-03-05 07:16:00,51.3,51.0,30.02,WSW,237,4.0,6.0,99,0.00,,,0.00,Wunderground v.1.15,2013-03-05 12:16:00,
2013-03-05 07:22:00,51.4,50.9,30.02,SW,236,4.0,6.0,98,0.00,,,0.00,Wunderground v.1.15,2013-03-05 12:22:00,
2013-03-05 07:28:00,51.6,51.1,30.02,SW,222,3.0,6.0,98,0.00,,,0.00,Wunderground v.1.15,2013-03-05 12:28:00,
2013-03-05 07:34:00,51.7,51.2,30.03,WSW,246,5.0,7.0,98,0.00,,,0.00,Wunderground v.1.15,2013-03-05 12:34:00,
2013-03-05 07:40:00,52.0,51.2,30.03,SW,226,5.0,5.0,97,0.00,,,0.00,Wunderground v.1.15,2013-03-05 12:40:00,
2013-03-05 07:46:00,52.5,51.4,30.03,SW,220,3.0,5.0,96,0.00,,,0.00,Wunderground v.1.15,2013-03-05 12:46:00,
2013-03-05 07:52:00,52.8,51.1,30.03,SW,230,3.0,4.0,94,0.00,,,0.00,Wunderground v.1.15,2013-03-05 12:52:00,
2013-03-05 07:58:00,52.8,50.5,30.03,SSW,212,4.0,4.0,92,0.00,,,0.00,Wunderground v.1.15,2013-03-05 12:58:00,
2013-03-05 08:04:00,52.9,50.3,30.03,SW,227,3.0,7.0,91,0.00,,,0.00,Wunderground v.1.15,2013-03-05 13:04:00,
2013-03-05 08:10:00,53.1,50.2,30.03,WSW,240,4.0,10.0,90,0.00,,,0.00,Wunderground v.1.15,2013-03-05 13:10:00,
2013-03-05 08:16:00,53.2,50.3,30.02,SSW,208,4.0,10.0,90,0.00,,,0.00,Wunderground v.1.15,2013-03-05 13:16:00,
2013-03-05 08:22:00,53.3,50.4,30.02,SSW,203,3.0,3.0,90,0.00,,,0.00,Wunderground v.1.15,2013-03-05 13:22:00,
2013-03-05 08:28:00,53.5,50.9,30.02,South,182,3.0,5.0,91,0.00,,,0.00,Wunderground v.1.15,2013-03-05 13:28:00,
2013-03-05 08:34:00,53.8,51.5,30.02,South,186,3.0,6.0,92,0.00,,,0.00,Wunderground v.1.15,2013-03-05 13:34:00,
2013-03-05 08:40:00,54.2,51.3,30.02,SSE,151,4.0,4.0,90,0.00,,,0.00,Wunderground v.1.15,2013-03-05 13:40:00,
2013-03-05 08:46:00,54.7,50.9,30.02,SSW,198,4.0,4.0,87,0.00,,,0.00,Wunderground v.1.15,2013-03-05 13:46:00,
2013-03-05 08:52:00,54.8,50.1,30.02,SW,222,4.0,4.0,84,0.00,,,0.00,Wunderground v.1.15,2013-03-05 13:52:00,
2013-03-05 08:58:00,55.4,49.7,30.02,SSW,206,4.0,5.0,81,0.00,,,0.00,Wunderground v.1.15,2013-03-05 13:58:00,
2013-03-05 09:04:00,56.3,49.9,30.02,South,188,3.0,6.0,79,0.00,,,0.00,Wunderground v.1.15,2013-03-05 14:04:00,
2013-03-05 09:10:00,57.0,49.2,30.02,SSW,198,3.0,5.0,75,0.00,,,0.00,Wunderground v.1.15,2013-03-05 14:10:00,
2013-03-05 09:16:00,57.0,48.4,30.01,South,191,4.0,6.0,73,0.00,,,0.00,Wunderground v.1.15,2013-03-05 14:16:00,
2013-03-05 09:22:00,57.5,48.2,30.01,SSW,213,5.0,10.0,71,0.00,,,0.00,Wunderground v.1.15,2013-03-05 14:22:00,
2013-03-05 09:28:00,57.8,47.3,30.01,SW,226,5.0,10.0,68,0.00,,,0.00,Wunderground v.1.15,2013-03-05 14:28:00,
2013-03-05 09:34:00,58.4,48.3,30.00,SW,230,4.0,7.0,69,0.00,,,0.00,Wunderground v.1.15,2013-03-05 14:34:00,
2013-03-05 09:40:00,58.7,46.1,30.00,SW,220,6.0,6.0,63,0.00,,,0.00,Wunderground v.1.15,2013-03-05 14:40:00,
2013-03-05 09:46:00,59.2,46.6,29.99,South,171,6.0,6.0,63,0.00,,,0.00,Wunderground v.1.15,2013-03-05 14:46:00,
2013-03-05 09:52:00,59.9,48.9,29.99,South,174,6.0,7.0,67,0.00,,,0.00,Wunderground v.1.15,2013-03-05 14:52:00,
2013-03-05 09:58:00,59.3,47.5,29.99,South,189,6.0,12.0,65,0.00,,,0.00,Wunderground v.1.15,2013-03-05 14:58:00,
2013-03-05 10:04:00,59.2,47.0,29.99,SW,215,6.0,12.0,64,0.00,,,0.00,Wunderground v.1.15,2013-03-05 15:04:00,
2013-03-05 10:10:00,59.5,47.3,29.99,WSW,241,5.0,5.0,64,0.00,,,0.00,Wunderground v.1.15,2013-03-05 15:10:00,
2013-03-05 10:16:00,60.1,46.6,29.98,South,172,5.0,7.0,61,0.00,,,0.00,Wunderground v.1.15,2013-03-05 15:16:00,
2013-03-05 10:22:00,60.5,46.5,29.98,SSW,205,7.0,7.0,60,0.00,,,0.00,Wunderground v.1.15,2013-03-05 15:22:00,
2013-03-05 10:28:00,60.7,45.8,29.98,South,185,8.0,11.0,58,0.00,,,0.00,Wunderground v.1.15,2013-03-05 15:28:00,
2013-03-05 10:34:00,60.7,45.8,29.96,WSW,244,9.0,11.0,58,0.00,,,0.00,Wunderground v.1.15,2013-03-05 15:34:00,
2013-03-05 10:40:00,60.5,46.1,29.96,SSW,196,9.0,9.0,59,0.00,,,0.00,Wunderground v.1.15,2013-03-05 15:40:00,
2013-03-05 10:46:00,60.9,46.5,29.97,South,179,10.0,10.0,59,0.00,,,0.00,Wunderground v.1.15,2013-03-05 15:46:00,
2013-03-05 10:52:00,61.8,46.4,29.97,WSW,237,7.0,8.0,57,0.00,,,0.00,Wunderground v.1.15,2013-03-05 15:52:00,
2013-03-05 10:58:00,61.3,45.0,29.97,SW,232,7.0,13.0,55,0.00,,,0.00,Wunderground v.1.15,2013-03-05 15:58:00,
2013-03-05 11:04:00,61.2,44.9,29.97,WSW,248,9.0,17.0,55,0.00,,,0.00,Wunderground v.1.15,2013-03-05 16:04:00,
2013-03-05 11:10:00,60.9,45.6,29.97,South,182,11.0,11.0,57,0.00,,,0.00,Wunderground v.1.15,2013-03-05 16:10:00,
2013-03-05 11:16:00,61.2,45.8,29.97,SSW,209,10.0,11.0,57,0.00,,,0.00,Wunderground v.1.15,2013-03-05 16:16:00,
2013-03-05 11:22:00,61.3,45.5,29.97,South,179,9.0,16.0,56,0.00,,,0.00,Wunderground v.1.15,2013-03-05 16:22:00,
2013-03-05 11:28:00,61.6,44.8,29.97,SW,217,9.0,19.0,54,0.00,,,0.00,Wunderground v.1.15,2013-03-05 16:28:00,
2013-03-05 11:34:00,61.8,43.5,29.96,SW,226,10.0,18.0,51,0.00,,,0.00,Wunderground v.1.15,2013-03-05 16:34:00,
2013-03-05 11:40:00,62.0,43.1,29.96,WSW,250,11.0,11.0,50,0.00,,,0.00,Wunderground v.1.15,2013-03-05 16:40:00,
2013-03-05 11:46:00,62.0,43.1,29.96,South,188,11.0,18.0,50,0.00,,,0.00,Wunderground v.1.15,2013-03-05 16:46:00,
2013-03-05 11:52:00,62.0,43.7,29.96,WSW,243,12.0,12.0,51,0.00,,,0.00,Wunderground v.1.15,2013-03-05 16:52:00,
2013-03-05 11:58:00,62.1,44.3,29.96,SSW,202,9.0,12.0,52,0.00,,,0.00,Wunderground v.1.15,2013-03-05 16:58:00,
2013-03-05 12:04:00,61.8,43.5,29.96,WSW,251,9.0,9.0,51,0.00,,,0.00,Wunderground v.1.15,2013-03-05 17:04:00,
2013-03-05 12:10:00,61.6,42.2,29.96,WSW,239,10.0,10.0,49,0.00,,,0.00,Wunderground v.1.15,2013-03-05 17:10:00,
2013-03-05 12:16:00,61.3,43.0,29.95,SW,232,11.0,18.0,51,0.00,,,0.00,Wunderground v.1.15,2013-03-05 17:16:00,
2013-03-05 12:22:00,61.2,43.9,29.95,WSW,244,12.0,12.0,53,0.00,,,0.00,Wunderground v.1.15,2013-03-05 17:22:00,
2013-03-05 12:28:00,61.2,43.9,29.95,West,271,10.0,12.0,53,0.00,,,0.00,Wunderground v.1.15,2013-03-05 17:28:00,
2013-03-05 12:34:00,61.0,44.7,29.94,West,265,10.0,13.0,55,0.00,,,0.00,Wunderground v.1.15,2013-03-05 17:34:00,
2013-03-05 12:40:00,60.7,43.9,29.94,SSW,206,12.0,16.0,54,0.00,,,0.00,Wunderground v.1.15,2013-03-05 17:40:00,
2013-03-05 12:46:00,60.2,44.4,29.93,WSW,256,13.0,18.0,56,0.00,,,0.00,Wunderground v.1.15,2013-03-05 17:46:00,
2013-03-05 12:52:00,59.9,44.2,29.93,SSW,192,13.0,14.0,56,0.00,,,0.00,Wunderground v.1.15,2013-03-05 17:52:00,
2013-03-05 12:58:00,59.6,45.2,29.93,SW,224,13.0,18.0,59,0.00,,,0.00,Wunderground v.1.15,2013-03-05 17:58:00,
2013-03-05 13:04:00,59.8,46.3,29.92,South,181,10.0,13.0,61,0.00,,,0.00,Wunderground v.1.15,2013-03-05 18:04:00,
2013-03-05 13:10:00,59.5,46.0,29.92,West,260,8.0,11.0,61,0.00,,,0.00,Wunderground v.1.15,2013-03-05 18:10:00,
2013-03-05 13:16:00,59.2,46.2,29.91,SW,229,10.0,14.0,62,0.00,,,0.00,Wunderground v.1.15,2013-03-05 18:16:00,
2013-03-05 13:22:00,59.3,46.7,29.91,WSW,253,9.0,13.0,63,0.00,,,0.00,Wunderground v.1.15,2013-03-05 18:22:00,
2013-03-05 13:28:00,59.5,46.9,29.91,WSW,243,9.0,13.0,63,0.00,,,0.00,Wunderground v.1.15,2013-03-05 18:28:00,
2013-03-05 13:34:00,59.6,47.0,29.90,WSW,246,8.0,9.0,63,0.00,,,0.00,Wunderground v.1.15,2013-03-05 18:34:00,
2013-03-05 13:40:00,59.5,46.9,29.90,SSW,205,9.0,9.0,63,0.00,,,0.00,Wunderground v.1.15,2013-03-05 18:40:00,
2013-03-05 13:46:00,59.6,46.6,29.88,WSW,246,11.0,11.0,62,0.00,,,0.00,Wunderground v.1.15,2013-03-05 18:46:00,
2013-03-05 13:52:00,59.3,46.7,29.88,WSW,237,10.0,10.0,63,0.00,,,0.00,Wunderground v.1.15,2013-03-05 18:52:00,
2013-03-05 13:58:00,59.0,46.8,29.88,SW,226,9.0,13.0,64,0.00,,,0.00,Wunderground v.1.15,2013-03-05 18:58:00,
2013-03-05 14:04:00,58.9,47.2,29.88,SSW,205,8.0,9.0,65,0.00,,,0.00,Wunderground v.1.15,2013-03-05 19:04:00,
2013-03-05 14:10:00,58.6,46.9,29.88,NW,316,7.0,7.0,65,0.00,,,0.00,Wunderground v.1.15,2013-03-05 19:10:00,
2013-03-05 14:16:00,58.4,47.5,29.88,West,264,5.0,10.0,67,0.00,,,0.00,Wunderground v.1.15,2013-03-05 19:16:00,
2013-03-05 14:22:00,58.3,47.8,29.88,SW,222,7.0,13.0,68,0.00,,,0.00,Wunderground v.1.15,2013-03-05 19:22:00,
2013-03-05 14:28:00,58.6,48.5,29.88,SW,217,7.0,13.0,69,0.00,,,0.00,Wunderground v.1.15,2013-03-05 19:28:00,
2013-03-05 14:34:00,58.7,48.6,29.86,SSW,196,5.0,7.0,69,0.00,,,0.00,Wunderground v.1.15,2013-03-05 19:34:00,
2013-03-05 14:40:00,58.4,49.0,29.86,SW,226,8.0,16.0,71,0.00,,,0.00,Wunderground v.1.15,2013-03-05 19:40:00,
2013-03-05 14:46:00,58.6,50.0,29.86,SW,217,8.0,16.0,73,0.00,,,0.00,Wunderground v.1.15,2013-03-05 19:46:00,
2013-03-05 14:52:00,58.6,50.3,29.86,WSW,244,6.0,8.0,74,0.00,,,0.00,Wunderground v.1.15,2013-03-05 19:52:00,
2013-03-05 14:58:00,58.6,50.3,29.86,SSW,196,8.0,12.0,74,0.00,,,0.00,Wunderground v.1.15,2013-03-05 19:58:00,
2013-03-05 15:04:00,59.0,51.1,29.85,SW,222,8.0,13.0,75,0.00,,,0.00,Wunderground v.1.15,2013-03-05 20:04:00,
2013-03-05 15:10:00,59.3,51.0,29.85,WSW,258,6.0,6.0,74,0.00,,,0.00,Wunderground v.1.15,2013-03-05 20:10:00,
2013-03-05 15:16:00,59.2,51.3,29.84,SW,219,6.0,7.0,75,0.00,,,0.00,Wunderground v.1.15,2013-03-05 20:16:00,
2013-03-05 15:22:00,59.5,51.6,29.84,SW,226,5.0,8.0,75,0.00,,,0.00,Wunderground v.1.15,2013-03-05 20:22:00,
2013-03-05 15:28:00,59.5,51.6,29.84,West,263,6.0,8.0,75,0.00,,,0.00,Wunderground v.1.15,2013-03-05 20:28:00,
2013-03-05 15:34:00,59.5,51.9,29.84,SW,222,7.0,7.0,76,0.00,,,0.00,Wunderground v.1.15,2013-03-05 20:34:00,
2013-03-05 15:40:00,59.2,52.0,29.84,SSW,208,7.0,7.0,77,0.00,,,0.00,Wunderground v.1.15,2013-03-05 20:40:00,
2013-03-05 15:46:00,58.9,52.1,29.83,SSW,212,7.0,10.0,78,0.00,,,0.00,Wunderground v.1.15,2013-03-05 20:46:00,
2013-03-05 15:52:00,58.9,52.4,29.83,South,186,7.0,7.0,79,0.00,,,0.00,Wunderground v.1.15,2013-03-05 20:52:00,
2013-03-05 15:58:00,58.6,52.1,29.83,WSW,241,9.0,15.0,79,0.00,,,0.00,Wunderground v.1.15,2013-03-05 20:58:00,
2013-03-05 16:04:00,58.4,52.3,29.83,SW,227,11.0,14.0,80,0.00,,,0.00,Wunderground v.1.15,2013-03-05 21:04:00,
2013-03-05 16:10:00,58.4,52.3,29.83,SSW,199,8.0,8.0,80,0.00,,,0.00,Wunderground v.1.15,2013-03-05 21:10:00,
2013-03-05 16:16:00,58.6,52.4,29.82,SW,232,8.0,10.0,80,0.00,,,0.00,Wunderground v.1.15,2013-03-05 21:16:00,
2013-03-05 16:22:00,58.6,52.4,29.82,SW,236,9.0,9.0,80,0.00,,,0.00,Wunderground v.1.15,2013-03-05 21:22:00,
2013-03-05 16:28:00,58.6,52.4,29.82,SW,234,7.0,11.0,80,0.00,,,0.00,Wunderground v.1.15,2013-03-05 21:28:00,
2013-03-05 16:34:00,58.6,52.8,29.81,SW,236,8.0,8.0,81,0.00,,,0.00,Wunderground v.1.15,2013-03-05 21:34:00,
2013-03-05 16:40:00,58.7,52.9,29.81,SW,220,7.0,7.0,81,0.00,,,0.00,Wunderground v.1.15,2013-03-05 21:40:00,
2013-03-05 16:46:00,58.9,53.1,29.81,WSW,240,5.0,9.0,81,0.00,,,0.00,Wunderground v.1.15,2013-03-05 21:46:00,
2013-03-05 16:52:00,59.0,52.8,29.81,SSW,209,6.0,9.0,80,0.00,,,0.00,Wunderground v.1.15,2013-03-05 21:52:00,
2013-03-05 16:58:00,59.0,53.2,29.81,SSW,192,7.0,13.0,81,0.00,,,0.00,Wunderground v.1.15,2013-03-05 21:58:00,
2013-03-05 17:04:00,59.0,53.2,29.80,SW,216,7.0,11.0,81,0.00,,,0.00,Wunderground v.1.15,2013-03-05 22:04:00,
2013-03-05 17:10:00,59.0,53.2,29.80,SW,222,7.0,7.0,81,0.00,,,0.00,Wunderground v.1.15,2013-03-05 22:10:00,
2013-03-05 17:16:00,59.0,53.2,29.79,SW,219,7.0,14.0,81,0.00,,,0.00,Wunderground v.1.15,2013-03-05 22:16:00,
2013-03-05 17:22:00,59.2,53.4,29.79,WSW,254,7.0,11.0,81,0.00,,,0.00,Wunderground v.1.15,2013-03-05 22:22:00,
2013-03-05 17:28:00,59.3,53.8,29.79,WSW,237,6.0,16.0,82,0.00,,,0.00,Wunderground v.1.15,2013-03-05 22:28:00,
2013-03-05 17:34:00,59.2,53.7,29.78,South,185,7.0,12.0,82,0.00,,,0.00,Wunderground v.1.15,2013-03-05 22:34:00,
2013-03-05 17:40:00,59.2,54.0,29.78,SSW,195,7.0,10.0,83,0.00,,,0.00,Wunderground v.1.15,2013-03-05 22:40:00,
2013-03-05 17:46:00,59.2,54.4,29.77,SW,234,7.0,10.0,84,0.00,,,0.00,Wunderground v.1.15,2013-03-05 22:46:00,
2013-03-05 17:52:00,59.0,54.2,29.77,WSW,239,7.0,16.0,84,0.00,,,0.00,Wunderground v.1.15,2013-03-05 22:52:00,
2013-03-05 17:58:00,58.9,54.4,29.77,SW,229,7.0,17.0,85,0.00,,,0.00,Wunderground v.1.15,2013-03-05 22:58:00,
2013-03-05 18:04:00,58.7,54.5,29.76,SSW,203,7.0,8.0,86,0.00,,,0.00,Wunderground v.1.15,2013-03-05 23:04:00,
2013-03-05 18:10:00,58.7,54.5,29.76,West,268,6.0,6.0,86,0.00,,,0.00,Wunderground v.1.15,2013-03-05 23:10:00,
2013-03-05 18:16:00,58.7,54.5,29.76,SSW,198,6.0,9.0,86,0.00,,,0.00,Wunderground v.1.15,2013-03-05 23:16:00,
2013-03-05 18:22:00,58.9,54.7,29.76,WSW,237,6.0,8.0,86,0.00,,,0.00,Wunderground v.1.15,2013-03-05 23:22:00,
2013-03-05 18:28:00,58.9,54.7,29.76,SW,226,6.0,8.0,86,0.00,,,0.00,Wunderground v.1.15,2013-03-05 23:28:00,
2013-03-05 18:34:00,59.0,54.8,29.76,SSW,203,6.0,9.0,86,0.00,,,0.00,Wunderground v.1.15,2013-03-05 23:34:00,
2013-03-05 18:40:00,59.2,55.0,29.76,SSW,198,7.0,7.0,86,0.00,,,0.00,Wunderground v.1.15,2013-03-05 23:40:00,
2013-03-05 18:46:00,59.3,55.1,29.75,SSW,209,6.0,8.0,86,0.00,,,0.00,Wunderground v.1.15,2013-03-05 23:46:00,
2013-03-05 18:52:00,59.5,55.3,29.75,SW,230,7.0,17.0,86,0.00,,,0.00,Wunderground v.1.15,2013-03-05 23:52:00,
2013-03-05 18:58:00,59.6,55.4,29.75,SSW,206,8.0,17.0,86,0.00,,,0.00,Wunderground v.1.15,2013-03-05 23:58:00,
2013-03-05 19:04:00,59.6,55.4,29.74,SW,215,7.0,10.0,86,0.00,,,0.00,Wunderground v.1.15,2013-03-06 00:04:00,
2013-03-05 19:10:00,59.9,55.7,29.74,SSW,206,7.0,8.0,86,0.00,,,0.00,Wunderground v.1.15,2013-03-06 00:10:00,
2013-03-05 19:16:00,60.1,55.6,29.73,South,179,8.0,11.0,85,0.00,,,0.00,Wunderground v.1.15,2013-03-06 00:16:00,
2013-03-05 19:22:00,60.2,55.3,29.73,South,191,8.0,9.0,84,0.00,,,0.00,Wunderground v.1.15,2013-03-06 00:22:00,
2013-03-05 19:28:00,60.7,55.2,29.73,WSW,240,8.0,17.0,82,0.00,,,0.00,Wunderground v.1.15,2013-03-06 00:28:00,
2013-03-05 19:34:00,60.9,55.4,29.72,South,186,9.0,11.0,82,0.00,,,0.00,Wunderground v.1.15,2013-03-06 00:34:00,
2013-03-05 19:40:00,60.7,55.2,29.72,SW,236,9.0,9.0,82,0.00,,,0.00,Wunderground v.1.15,2013-03-06 00:40:00,
2013-03-05 19:46:00,60.9,55.4,29.70,SSW,203,9.0,18.0,82,0.00,,,0.00,Wunderground v.1.15,2013-03-06 00:46:00,
2013-03-05 19:52:00,60.7,55.5,29.70,SSE,160,10.0,10.0,83,0.00,,,0.00,Wunderground v.1.15,2013-03-06 00:52:00,
2013-03-05 19:58:00,60.9,55.7,29.70,SSW,210,10.0,18.0,83,0.00,,,0.00,Wunderground v.1.15,2013-03-06 00:58:00,
2013-03-05 20:04:00,60.9,55.7,29.69,SSW,205,10.0,11.0,83,0.00,,,0.00,Wunderground v.1.15,2013-03-06 01:04:00,
2013-03-05 20:10:00,60.7,55.5,29.69,SSE,160,9.0,11.0,83,0.00,,,0.00,Wunderground v.1.15,2013-03-06 01:10:00,
2013-03-05 20:16:00,60.9,55.7,29.67,SSW,210,11.0,17.0,83,0.00,,,0.00,Wunderground v.1.15,2013-03-06 01:16:00,
2013-03-05 20:22:00,61.0,55.5,29.67,SW,222,13.0,18.0,82,0.00,,,0.00,Wunderground v.1.15,2013-03-06 01:22:00,
2013-03-05 20:28:00,61.2,55.7,29.67,South,172,12.0,18.0,82,0.00,,,0.00,Wunderground v.1.15,2013-03-06 01:28:00,
2013-03-05 20:34:00,61.5,56.0,29.67,SW,224,10.0,12.0,82,0.00,,,0.00,Wunderground v.1.15,2013-03-06 01:34:00,
2013-03-05 20:40:00,61.5,56.3,29.67,SW,232,10.0,12.0,83,0.00,,,0.00,Wunderground v.1.15,2013-03-06 01:40:00,
2013-03-05 20:46:00,61.6,56.4,29.66,SSW,212,13.0,21.0,83,0.00,,,0.00,Wunderground v.1.15,2013-03-06 01:46:00,
2013-03-05 20:52:00,61.6,56.4,29.66,SSW,200,13.0,14.0,83,0.00,,,0.00,Wunderground v.1.15,2013-03-06 01:52:00,
2013-03-05 20:58:00,61.8,56.6,29.66,SW,220,12.0,18.0,83,0.00,,,0.00,Wunderground v.1.15,2013-03-06 01:58:00,
2013-03-05 21:04:00,62.0,56.8,29.66,WSW,241,14.0,14.0,83,0.00,,,0.00,Wunderground v.1.15,2013-03-06 02:04:00,
2013-03-05 21:10:00,62.1,56.9,29.66,West,271,13.0,13.0,83,0.00,,,0.00,Wunderground v.1.15,2013-03-06 02:10:00,
2013-03-05 21:16:00,62.3,57.1,29.66,SW,223,11.0,13.0,83,0.00,,,0.00,Wunderground v.1.15,2013-03-06 02:16:00,
2013-03-05 21:22:00,62.4,57.2,29.66,SSE,168,12.0,13.0,83,0.00,,,0.00,Wunderground v.1.15,2013-03-06 02:22:00,
2013-03-05 21:28:00,62.3,57.4,29.66,SW,227,12.0,20.0,84,0.00,,,0.00,Wunderground v.1.15,2013-03-06 02:28:00,
2013-03-05 21:34:00,62.3,57.7,29.65,South,184,11.0,12.0,85,0.00,,,0.00,Wunderground v.1.15,2013-03-06 02:34:00,
2013-03-05 21:40:00,62.4,57.8,29.65,SSW,213,12.0,12.0,85,0.00,,,0.00,Wunderground v.1.15,2013-03-06 02:40:00,
2013-03-05 21:46:00,62.4,58.2,29.65,West,261,12.0,12.0,86,0.00,,,0.00,Wunderground v.1.15,2013-03-06 02:46:00,
2013-03-05 21:52:00,62.4,58.2,29.65,WSW,237,11.0,20.0,86,0.00,,,0.00,Wunderground v.1.15,2013-03-06 02:52:00,
2013-03-05 21:58:00,62.3,58.4,29.65,SW,233,11.0,20.0,87,0.00,,,0.00,Wunderground v.1.15,2013-03-06 02:58:00,
2013-03-05 22:04:00,62.1,58.2,29.65,SSW,213,11.0,13.0,87,0.00,,,0.00,Wunderground v.1.15,2013-03-06 03:04:00,
2013-03-05 22:10:00,62.1,58.5,29.65,WSW,250,14.0,19.0,88,0.00,,,0.00,Wunderground v.1.15,2013-03-06 03:10:00,
2013-03-05 22:16:00,62.1,58.5,29.64,WSW,244,14.0,19.0,88,0.00,,,0.00,Wunderground v.1.15,2013-03-06 03:16:00,
2013-03-05 22:22:00,61.8,58.5,29.64,SW,222,13.0,15.0,89,0.00,,,0.00,Wunderground v.1.15,2013-03-06 03:22:00,
2013-03-05 22:28:00,61.6,58.3,29.64,SW,224,13.0,20.0,89,0.00,,,0.00,Wunderground v.1.15,2013-03-06 03:28:00,
2013-03-05 22:34:00,61.8,58.5,29.64,SSW,199,12.0,14.0,89,0.00,,,0.00,Wunderground v.1.15,2013-03-06 03:34:00,
2013-03-05 22:40:00,62.4,58.8,29.64,WSW,247,11.0,15.0,88,0.00,,,0.00,Wunderground v.1.15,2013-03-06 03:40:00,
2013-03-05 22:46:00,62.6,58.7,29.64,WSW,246,13.0,21.0,87,0.00,,,0.00,Wunderground v.1.15,2013-03-06 03:46:00,
2013-03-05 22:52:00,61.2,58.9,29.64,WNW,287,15.0,24.0,92,0.47,,,0.02,Wunderground v.1.15,2013-03-06 03:52:00,
2013-03-05 22:58:00,60.1,59.2,29.64,WNW,282,16.0,24.0,97,0.09,,,0.02,Wunderground v.1.15,2013-03-06 03:58:00,
2013-03-05 23:04:00,59.6,59.3,29.66,SSW,212,11.0,14.0,99,0.05,,,0.00,Wunderground v.1.15,2013-03-06 04:04:00,
2013-03-05 23:10:00,59.6,58.7,29.66,SW,232,10.0,12.0,97,0.00,,,0.00,Wunderground v.1.15,2013-03-06 04:10:00,
2013-03-05 23:16:00,59.8,58.1,29.63,WNW,299,11.0,18.0,94,0.00,,,0.00,Wunderground v.1.15,2013-03-06 04:16:00,
2013-03-05 23:22:00,59.6,57.9,29.63,West,280,9.0,10.0,94,0.00,,,0.00,Wunderground v.1.15,2013-03-06 04:22:00,
2013-03-05 23:28:00,59.3,57.9,29.63,WSW,246,8.0,10.0,95,0.00,,,0.00,Wunderground v.1.15,2013-03-06 04:28:00,
2013-03-05 23:34:00,59.5,58.4,29.63,WNW,284,8.0,8.0,96,0.00,,,0.00,Wunderground v.1.15,2013-03-06 04:34:00,
2013-03-05 23:40:00,59.3,58.4,29.63,WSW,253,7.0,7.0,97,0.00,,,0.00,Wunderground v.1.15,2013-03-06 04:40:00,
2013-03-05 23:46:00,59.2,58.6,29.64,WSW,237,4.0,7.0,98,0.00,,,0.00,Wunderground v.1.15,2013-03-06 04:46:00,
2013-03-05 23:52:00,59.0,59.0,29.64,WSW,246,5.0,5.0,100,0.00,,,0.00,Wunderground v.1.15,2013-03-06 04:52:00,
2013-03-05 23:58:00,58.7,58.7,29.64,SW,227,6.0,7.0,100,0.00,,,0.00,Wunderground v.1.15,2013-03-06 04:58:00,